Wind_Speed
20 21 22 26 28 30 30 29 28 28 27 27 28 28 28 28 26 25 24 24 23 22 21 21 21 21 20 20 20 19 18 17 17 16 16 15 15 15 15 16 16 16
19 21 21 24 28 30 30 30 30 29 27 26 27 28 29 28 27 26 26 25 24 24 23 22 21 21 20 20 20 20 19 18 18 18 17 16 16 16 16 16 16 16
18 20 20 22 27 30 30 31 33 32 29 28 28 29 30 29 28 27 26 25 25 25 24 23 23 22 21 21 21 21 20 20 20 19 18 18 17 17 17 17 17 18
18 19 20 21 24 28 29 30 33 33 32 32 31 32 32 31 30 28 27 26 26 26 25 24 23 22 22 22 22 22 21 21 21 20 20 19 19 18 18 18 18 18
18 19 20 20 20 24 28 30 32 33 34 34 34 34 35 34 32 30 29 29 28 27 26 25 24 23 23 23 23 23 22 22 21 21 21 20 20 19 18 18 19 19
19 19 20 20 18 21 27 30 32 33 34 35 35 35 36 36 34 31 30 30 29 28 28 26 25 24 23 23 23 23 23 22 22 22 22 22 21 20 19 19 19 20
19 19 20 19 17 18 24 28 31 32 33 34 35 35 35 35 34 34 33 31 30 30 28 26 25 23 23 23 23 22 22 22 22 23 23 23 22 20 20 20 21 21
21 19 19 19 17 17 22 26 29 31 31 33 35 35 34 34 34 34 34 34 33 30 27 25 25 24 24 25 23 22 23 23 23 23 23 23 22 21 21 21 21 21
23 21 20 19 18 17 19 24 28 30 31 32 35 36 35 34 33 33 33 33 32 29 27 27 26 26 26 25 24 24 24 24 24 24 23 22 22 22 21 21 21 21
26 24 21 20 19 17 17 20 24 27 30 32 35 37 36 35 34 33 32 33 31 30 30 29 28 27 27 26 26 26 25 25 25 24 23 23 23 23 22 21 21 20
27 26 23 21 20 18 16 17 20 23 27 30 33 35 36 36 35 34 34 34 34 33 32 30 29 29 28 27 27 26 26 27 26 25 24 24 24 23 22 22 21 21
27 28 26 24 22 19 16 16 18 21 25 27 30 33 34 34 35 36 37 36 36 36 33 31 30 29 28 28 28 28 28 28 28 26 26 25 24 23 23 23 22 22
26 28 29 27 24 21 17 15 16 19 23 26 28 31 33 34 35 37 37 37 36 36 35 33 33 32 30 29 30 31 30 29 29 28 27 26 25 24 24 24 23 23
24 27 29 29 28 24 19 17 16 17 19 23 26 29 31 33 34 35 36 37 37 36 36 36 35 35 34 31 31 32 31 30 31 30 28 27 25 24 24 24 24 23
24 25 28 30 31 28 22 18 18 18 18 20 24 28 31 32 33 33 34 36 36 37 37 37 36 36 35 33 31 32 32 32 32 31 28 26 26 25 25 24 24 23
24 25 27 30 32 31 26 21 19 20 19 18 19 23 28 32 33 33 34 34 35 36 38 38 38 37 36 34 33 32 32 32 32 31 29 27 27 26 26 25 24 24
24 25 26 29 32 32 29 25 22 22 21 19 18 19 22 27 30 32 34 35 35 36 37 38 38 37 36 36 35 34 33 33 32 32 31 29 28 28 27 27 26 25
25 25 26 28 31 32 30 28 26 25 24 22 20 19 19 21 24 27 30 34 36 37 37 38 38 37 37 37 37 37 36 35 34 34 33 32 30 30 30 30 29 28
26 26 26 27 30 31 31 29 28 27 26 24 22 21 20 20 21 23 25 29 32 35 36 38 39 39 38 38 39 39 38 37 36 35 35 34 33 32 32 33 32 31
25 26 26 27 29 31 32 30 29 29 27 26 24 23 23 22 21 21 23 25 28 30 32 34 38 40 41 40 39 40 39 38 37 37 37 36 34 33 34 34 34 33
25 26 27 27 28 31 32 32 30 30 29 28 26 25 25 24 22 22 22 23 25 26 27 29 33 37 40 41 41 41 41 40 39 38 37 36 36 35 36 35 35 36
25 26 27 28 28 30 32 34 33 32 30 29 27 26 26 25 23 23 22 21 22 23 24 25 26 29 33 37 40 42 42 41 40 40 39 37 37 37 37 37 37 37
25 26 26 27 28 30 32 35 36 34 32 31 29 28 28 27 25 24 24 22 20 20 21 22 23 23 25 29 34 38 40 40 40 41 41 40 38 36 37 38 39 39
25 26 27 27 28 29 32 34 36 36 34 31 29 29 29 28 26 25 25 23 21 20 21 21 21 21 22 24 27 31 35 37 39 41 41 42 41 39 37 37 39 39
25 25 26 27 28 29 31 33 36 37 35 32 30 29 29 28 27 26 26 25 23 21 22 22 22 22 22 24 25 27 29 32 35 37 38 40 42 42 41 40 39 39
25 25 26 27 27 29 30 32 35 38 37 34 32 30 29 29 28 26 26 26 24 23 23 23 23 23 22 23 24 26 28 29 30 30 32 34 37 40 41 43 42 40
Wind_Direction
279 268 256 243 235 229 226 224 223 224 224 222 220 216 214 214 211 209 209 210 211 211 212 213 215 219 222 224 227 229 229 229 231 231 229 227 225 224 223 223 223 222
289 276 263 249 239 231 224 219 217 220 223 224 224 223 221 219 216 213 212 212 213 213 212 213 215 217 221 224 227 229 229 229 231 232 231 229 227 224 222 222 222 222
297 285 271 257 246 235 224 217 214 214 215 217 221 225 226 224 220 217 216 216 217 218 216 214 214 216 220 224 227 229 229 228 230 232 232 230 228 226 223 223 223 222
297 292 279 268 256 242 230 222 217 215 214 213 216 220 223 225 224 220 217 216 219 221 221 219 218 218 220 225 227 228 229 229 230 231 234 232 229 226 225 225 225 223
294 296 287 279 265 244 234 230 226 224 222 218 215 216 219 221 223 221 218 217 218 219 221 222 222 222 223 225 228 229 230 230 230 231 234 234 231 228 226 226 226 225
286 292 291 288 274 244 232 233 233 232 230 226 220 218 217 217 218 218 218 218 218 220 220 220 221 223 226 228 228 230 231 231 230 231 233 234 232 230 229 227 225 225
279 284 288 290 282 254 235 233 234 233 233 230 226 224 222 219 216 215 216 217 219 220 220 220 220 220 226 231 230 229 231 234 233 231 232 233 233 231 230 228 225 224
272 275 280 285 285 266 245 237 236 235 233 230 228 228 228 227 223 219 218 220 220 219 219 224 224 220 223 229 230 230 230 233 235 234 232 233 233 232 230 228 227 225
266 268 272 278 281 273 255 244 239 237 235 230 228 228 229 231 230 227 226 226 223 220 220 223 223 222 224 226 227 229 230 230 234 236 234 232 232 232 230 229 229 229
262 264 266 270 274 273 262 250 243 240 236 232 229 228 227 228 229 230 230 230 229 225 223 224 223 222 225 227 226 227 230 230 231 234 233 231 231 232 231 230 230 231
258 259 260 263 266 267 264 255 247 243 239 236 234 232 229 228 227 228 228 229 231 228 225 224 224 222 224 228 228 226 229 232 231 231 232 231 230 231 231 230 229 229
256 255 256 256 258 260 261 257 250 245 241 238 238 237 234 231 228 227 227 228 230 229 224 222 225 224 224 228 231 229 229 232 231 230 231 232 231 230 230 229 227 227
254 253 253 253 253 254 254 254 253 248 243 241 240 239 237 235 232 229 227 227 229 229 226 224 226 226 224 226 229 229 230 232 233 231 230 232 231 229 229 228 226 225
254 250 249 249 250 250 249 250 253 251 246 244 243 242 240 239 236 232 228 226 228 229 228 228 228 227 226 226 227 229 229 230 232 232 230 230 231 231 230 228 226 225
257 248 245 246 247 247 245 246 251 252 250 248 247 245 243 241 239 235 230 227 227 229 230 231 231 231 232 232 231 232 231 230 232 234 231 228 229 230 231 230 229 228
263 252 245 244 246 246 244 242 247 251 249 249 252 250 246 242 239 236 232 230 229 230 231 232 233 235 237 236 233 233 232 231 233 236 235 232 229 229 231 231 232 232
266 258 249 244 244 245 243 240 242 246 247 248 252 253 247 241 238 235 234 233 231 231 233 234 235 236 237 235 233 233 232 230 232 235 236 235 233 232 234 235 236 236
267 262 255 247 244 244 242 239 239 242 245 246 249 252 247 240 238 236 236 235 234 233 235 237 236 235 235 233 232 233 233 231 230 232 234 235 235 236 237 239 239 238
266 264 259 251 245 242 240 238 238 240 243 245 247 250 247 243 242 240 237 236 235 235 237 239 238 237 237 236 234 233 234 233 232 232 233 234 235 237 240 242 242 241
264 264 261 254 246 240 237 236 235 236 239 242 245 247 247 246 246 242 238 238 237 237 239 239 239 238 238 239 236 234 234 235 235 235 236 236 236 237 241 244 246 246
261 262 261 257 249 240 236 235 235 234 236 238 240 243 244 245 245 240 237 240 240 239 238 238 239 238 238 237 236 235 235 236 236 237 240 240 240 239 240 241 244 247
261 260 259 257 253 244 236 233 233 234 235 237 239 241 242 242 243 239 236 239 241 238 236 236 239 240 239 237 236 236 236 236 236 238 241 241 240 242 242 241 242 246
263 260 259 257 254 248 239 232 230 232 234 235 238 241 242 242 242 240 237 238 240 238 235 237 239 240 239 238 237 238 238 237 237 239 241 241 241 243 245 244 244 245
267 263 261 258 255 250 243 235 231 230 232 234 235 237 241 243 244 242 239 238 238 236 234 237 240 240 238 237 237 236 236 236 237 239 241 242 242 243 245 246 246 246
270 265 262 260 257 251 245 238 232 229 230 231 232 233 236 238 239 240 238 236 235 234 233 235 238 241 241 240 238 236 234 234 236 238 240 242 243 244 244 246 247 248
271 267 263 261 258 253 247 240 233 228 227 227 227 229 232 232 232 234 234 234 234 233 234 235 236 238 239 240 239 236 233 233 235 237 240 242 244 245 245 246 247 248
Height
5871 5871 5870 5870 5870 5871 5872 5875 5878 5881 5883 5885 5885 5885 5885 5885 5886 5887 5887 5888 5890 5891 5892 5893 5895 5896 5898 5899 5901 5902 5903 5904 5904 5904 5905 5905 5906 5906 5906 5907 5907 5908
5868 5867 5867 5867 5867 5867 5868 5870 5873 5876 5879 5882 5884 5884 5884 5884 5885 5885 5885 5886 5887 5888 5889 5890 5892 5893 5895 5897 5898 5899 5900 5901 5902 5902 5903 5903 5904 5904 5905 5905 5906 5906
5865 5864 5863 5864 5864 5864 5865 5866 5867 5869 5872 5875 5879 5882 5883 5883 5884 5884 5884 5885 5885 5886 5887 5888 5889 5890 5892 5894 5895 5897 5898 5899 5899 5900 5900 5901 5902 5902 5903 5903 5904 5904
5863 5861 5860 5860 5861 5863 5864 5864 5865 5866 5867 5868 5872 5875 5878 5880 5881 5882 5883 5882 5883 5884 5885 5886 5886 5887 5889 5891 5892 5893 5895 5896 5897 5897 5898 5899 5900 5900 5901 5901 5902 5903
5861 5860 5858 5857 5857 5860 5862 5863 5863 5865 5865 5865 5866 5869 5872 5874 5876 5879 5880 5880 5880 5881 5882 5883 5884 5885 5886 5888 5889 5891 5892 5893 5895 5895 5896 5896 5897 5898 5899 5900 5900 5901
5858 5857 5856 5854 5854 5855 5857 5859 5860 5862 5863 5864 5864 5865 5867 5868 5871 5874 5876 5877 5878 5878 5878 5879 5881 5882 5884 5886 5887 5888 5890 5891 5892 5893 5894 5894 5895 5896 5897 5898 5898 5899
5855 5854 5853 5852 5852 5852 5853 5855 5856 5858 5860 5862 5864 5866 5867 5867 5868 5869 5871 5873 5874 5874 5875 5876 5878 5879 5881 5883 5884 5886 5887 5888 5889 5890 5891 5891 5892 5893 5894 5895 5896 5897
5851 5851 5850 5850 5850 5849 5850 5851 5853 5855 5857 5860 5863 5866 5867 5868 5868 5869 5870 5870 5871 5872 5873 5875 5877 5877 5878 5880 5882 5883 5884 5885 5886 5887 5888 5889 5890 5891 5892 5893 5894 5895
5847 5847 5847 5848 5847 5847 5847 5848 5849 5851 5853 5856 5859 5861 5863 5865 5867 5869 5870 5869 5870 5871 5871 5872 5874 5875 5876 5878 5879 5880 5881 5882 5883 5885 5886 5887 5888 5889 5890 5891 5892 5893
5843 5843 5843 5844 5844 5844 5844 5845 5846 5848 5850 5852 5854 5856 5858 5860 5862 5866 5868 5869 5869 5869 5869 5870 5871 5872 5874 5876 5876 5877 5878 5879 5880 5882 5883 5885 5886 5886 5887 5889 5890 5891
5839 5839 5839 5840 5840 5841 5841 5842 5844 5845 5847 5849 5851 5853 5854 5855 5857 5860 5863 5865 5866 5867 5867 5868 5868 5869 5871 5873 5875 5875 5875 5876 5877 5878 5880 5881 5883 5884 5885 5886 5887 5888
5835 5835 5835 5836 5836 5838 5839 5839 5841 5842 5844 5846 5848 5849 5851 5852 5853 5854 5856 5859 5861 5863 5865 5866 5866 5866 5868 5871 5874 5873 5873 5873 5874 5875 5876 5878 5880 5881 5882 5883 5884 5885
5831 5831 5832 5832 5833 5834 5836 5837 5838 5839 5840 5842 5843 5845 5847 5848 5849 5850 5852 5854 5857 5860 5863 5863 5864 5864 5865 5867 5869 5870 5871 5871 5871 5872 5873 5875 5876 5878 5879 5880 5881 5882
5827 5828 5828 5828 5829 5830 5832 5834 5835 5835 5836 5837 5839 5841 5842 5843 5845 5847 5849 5851 5854 5857 5859 5860 5862 5862 5861 5862 5864 5866 5868 5869 5869 5869 5870 5872 5874 5875 5876 5877 5878 5879
5822 5823 5824 5824 5825 5826 5828 5830 5831 5832 5832 5833 5834 5836 5837 5839 5841 5844 5846 5849 5851 5853 5855 5857 5859 5860 5860 5861 5862 5864 5865 5866 5866 5866 5868 5869 5871 5872 5873 5874 5875 5876
5817 5818 5819 5820 5820 5822 5824 5825 5826 5827 5829 5830 5830 5831 5832 5834 5837 5840 5842 5845 5847 5848 5849 5852 5854 5856 5857 5858 5860 5861 5863 5863 5863 5864 5865 5867 5868 5869 5870 5871 5872 5873
5813 5814 5814 5815 5816 5818 5820 5822 5822 5823 5824 5826 5827 5828 5829 5830 5832 5835 5837 5840 5842 5844 5844 5846 5849 5851 5852 5854 5856 5857 5859 5860 5860 5861 5862 5864 5865 5867 5867 5868 5868 5869
5809 5809 5810 5811 5812 5813 5816 5817 5818 5818 5819 5821 5823 5824 5826 5827 5829 5831 5833 5834 5836 5838 5840 5841 5844 5846 5847 5849 5851 5853 5854 5855 5856 5857 5858 5860 5862 5864 5865 5865 5865 5866
5804 5804 5805 5806 5807 5808 5810 5812 5813 5814 5815 5816 5818 5820 5822 5824 5825 5827 5828 5829 5831 5832 5834 5836 5838 5841 5842 5844 5847 5849 5850 5851 5852 5853 5854 5856 5858 5859 5861 5862 5863 5863
5800 5800 5800 5801 5802 5803 5805 5806 5807 5809 5810 5812 5814 5816 5818 5819 5821 5823 5824 5825 5826 5827 5828 5830 5832 5835 5837 5840 5842 5845 5846 5848 5849 5850 5851 5853 5854 5855 5857 5860 5861 5861
5796 5796 5796 5796 5797 5798 5799 5801 5803 5804 5805 5808 5810 5812 5813 5815 5817 5818 5820 5821 5821 5822 5823 5824 5826 5828 5831 5834 5837 5839 5841 5843 5845 5846 5847 5849 5851 5852 5853 5855 5857 5858
5792 5792 5792 5792 5793 5794 5795 5797 5799 5800 5801 5803 5805 5808 5809 5810 5812 5814 5815 5817 5818 5818 5819 5820 5821 5823 5826 5828 5831 5833 5835 5838 5840 5841 5843 5844 5846 5848 5849 5851 5852 5853
5787 5787 5788 5788 5788 5789 5790 5792 5794 5796 5798 5799 5801 5803 5804 5806 5808 5810 5811 5813 5814 5815 5815 5816 5817 5819 5821 5823 5825 5827 5830 5833 5835 5837 5838 5840 5842 5843 5845 5846 5847 5847
5783 5783 5784 5784 5784 5785 5786 5788 5790 5791 5793 5794 5796 5798 5800 5803 5805 5806 5808 5810 5811 5811 5812 5813 5814 5816 5818 5819 5820 5822 5824 5827 5829 5831 5833 5835 5837 5838 5839 5841 5842 5842
5778 5779 5779 5779 5780 5780 5781 5783 5784 5786 5788 5790 5792 5794 5796 5798 5801 5803 5805 5806 5807 5808 5809 5810 5811 5812 5814 5815 5816 5817 5819 5821 5823 5826 5828 5830 5831 5832 5834 5835 5836 5838
5774 5774 5774 5774 5775 5776 5777 5778 5779 5781 5783 5786 5789 5791 5793 5794 5796 5798 5801 5803 5804 5805 5806 5806 5807 5809 5810 5811 5812 5814 5815 5817 5819 5821 5823 5824 5825 5826 5828 5829 5831 5833